Starlink 3568

operational
NORAD ID: 51856 Int'l Des: 2022-022 Owner: SPXS Country: US Constellation: starlink
LEOCIRCULAR

Über Starlink 3568

Beschreibung wird geladen...

Live-Position

3D-Globus wird geladen...

Nächste Überflüge

Höhenverlauf

Altitude vs Time

uPlot chart will show altitude changes over time

Zweizeiliger Elementsatz

1 51856U 22022E 26036.71988389 .00027972 00000-0 17728-2 0 9997
2 51856 53.2180 162.6498 0001908 86.2617 273.8593 15.08754941218226
Epoch: 5. Feb. 2026 • Age: 18 hours

Aktueller Status

Höhe 545.0 km
Geschwindigkeit 7.60 km/s
Subsatellitenpunkt 52.61°N, 41.91°W
Startdatum 3. März 2022
Alter 3.9 years
Typ internet

Technische Details

Klassifizierung Payload
Masse 297.00 kg
Trockenmasse 275.00 kg
Gesamtmasse 297.00 kg
Länge 0.20 m
Durchmesser 2.80 m
Spannweite 9.00 m
Form Box + pan
Hersteller SPXS
Bus-Typ Starlink
Phasenstatus In Orbit
Besitzer/Staat SPXS/US

Große Konstellationen

Loading constellations...